Powrót do katalogu

COSMOS 2251 DEB

AktywnyLEO
NORAD 34425·DEBRIS·🇷🇺 Russia

Wystrzelony Jun 16, 1993 z Plesetsk Cosmodrome

Loading…

Następne Przeloty (najbliższe 24 godziny)

TLE

ŚwieżeSource: Space-Track

Epoka: Sep 14, 2026, 08:54 UTC

1 34425U 93036RS  26257.37138189  .00001232  00000-0  24244-3 0  9998
2 34425  74.0148 245.4970 0028384 295.2908  64.5319 14.63491175927710

Śledź COSMOS 2251 DEB w czasie rzeczywistym z AllMySat

Download on the App Store